Time,TemperatureF,DewpointF,PressureIn,WindDirection,WindDirectionDegrees,WindSpeedMPH,WindSpeedGustMPH,Humidity,HourlyPrecipIn,Conditions,Clouds,dailyrainin,SoftwareType,DateUTC
2013-08-14 00:00:00,74.8,74.4,29.38,East,90,0.0,0.0,98,0.00,,,0.07,fowsr,2013-08-14 04:00:00,
2013-08-14 00:05:00,74.8,74.4,29.37,East,90,0.0,0.0,98,0.00,,,0.07,fowsr,2013-08-14 04:05:00,
2013-08-14 00:10:00,74.8,74.4,29.38,East,90,0.0,0.0,98,0.00,,,0.07,fowsr,2013-08-14 04:10:00,
2013-08-14 00:15:00,74.8,74.4,29.38,East,90,0.0,0.7,98,0.00,,,0.07,fowsr,2013-08-14 04:15:00,
2013-08-14 00:20:00,74.8,74.4,29.38,East,90,0.0,0.0,98,0.00,,,0.07,fowsr,2013-08-14 04:20:00,
2013-08-14 00:25:00,74.8,74.4,29.38,East,90,0.0,0.0,98,0.00,,,0.07,fowsr,2013-08-14 04:25:00,
2013-08-14 00:30:00,74.8,74.4,29.38,East,90,0.0,0.0,98,0.00,,,0.07,fowsr,2013-08-14 04:30:00,
2013-08-14 00:35:00,74.8,74.4,29.38,East,90,0.0,0.0,98,0.00,,,0.07,fowsr,2013-08-14 04:35:00,
2013-08-14 00:40:00,74.8,74.4,29.38,East,90,0.0,0.0,98,0.00,,,0.07,fowsr,2013-08-14 04:40:00,
2013-08-14 00:45:00,74.8,74.4,29.38,East,90,0.0,0.0,98,0.00,,,0.07,fowsr,2013-08-14 04:45:00,
2013-08-14 00:50:00,74.8,74.4,29.38,East,90,0.0,0.0,98,0.00,,,0.07,fowsr,2013-08-14 04:50:00,
2013-08-14 00:55:00,74.8,74.4,29.37,East,90,0.0,0.0,98,0.00,,,0.07,fowsr,2013-08-14 04:55:00,
2013-08-14 01:00:00,74.7,74.2,29.37,East,90,0.0,0.0,98,0.00,,,0.07,fowsr,2013-08-14 05:00:00,
2013-08-14 01:05:00,74.7,74.2,29.38,East,90,0.0,0.7,98,0.00,,,0.07,fowsr,2013-08-14 05:05:00,
2013-08-14 01:10:00,74.7,74.2,29.38,East,90,0.0,0.7,98,0.00,,,0.07,fowsr,2013-08-14 05:10:00,
2013-08-14 01:15:00,74.7,74.2,29.37,SE,135,0.0,0.0,98,0.00,,,0.07,fowsr,2013-08-14 05:15:00,
2013-08-14 01:20:00,74.7,74.2,29.37,SE,135,0.0,0.7,98,0.00,,,0.07,fowsr,2013-08-14 05:20:00,
2013-08-14 01:25:00,74.8,74.4,29.37,SE,135,0.0,0.0,98,0.00,,,0.07,fowsr,2013-08-14 05:25:00,
2013-08-14 01:30:00,74.7,74.2,29.37,SE,135,0.0,0.0,98,0.00,,,0.07,fowsr,2013-08-14 05:30:00,
2013-08-14 01:35:00,74.7,74.2,29.38,SE,135,0.0,0.0,98,0.00,,,0.07,fowsr,2013-08-14 05:35:00,
2013-08-14 01:40:00,74.7,74.2,29.38,SE,135,0.0,0.0,98,0.00,,,0.07,fowsr,2013-08-14 05:40:00,
2013-08-14 01:45:00,74.7,74.2,29.38,SE,135,0.0,0.0,98,0.00,,,0.07,fowsr,2013-08-14 05:45:00,
2013-08-14 01:50:00,74.7,74.2,29.38,SE,135,0.0,0.0,98,0.00,,,0.07,fowsr,2013-08-14 05:50:00,
2013-08-14 01:55:00,74.7,74.2,29.38,SE,135,0.0,0.0,98,0.00,,,0.07,fowsr,2013-08-14 05:55:00,
2013-08-14 02:00:00,74.7,74.2,29.38,SE,135,0.0,0.0,98,0.00,,,0.07,fowsr,2013-08-14 06:00:00,
2013-08-14 02:05:00,74.7,74.2,29.39,SE,135,0.0,0.0,98,0.00,,,0.07,fowsr,2013-08-14 06:05:00,
2013-08-14 02:10:00,74.7,74.4,29.38,SE,135,0.0,0.0,99,0.00,,,0.07,fowsr,2013-08-14 06:10:00,
2013-08-14 02:15:00,74.7,74.4,29.38,SE,135,0.0,0.0,99,0.00,,,0.07,fowsr,2013-08-14 06:15:00,
2013-08-14 02:20:00,74.7,74.4,29.38,SE,135,0.0,0.0,99,0.00,,,0.07,fowsr,2013-08-14 06:20:00,
2013-08-14 02:25:00,74.7,74.4,29.37,SE,135,0.0,0.0,99,0.00,,,0.07,fowsr,2013-08-14 06:25:00,
2013-08-14 02:30:00,74.7,74.4,29.37,SE,135,0.0,0.0,99,0.00,,,0.07,fowsr,2013-08-14 06:30:00,
2013-08-14 02:35:00,74.7,74.4,29.38,SE,135,0.0,0.0,99,0.00,,,0.07,fowsr,2013-08-14 06:35:00,
2013-08-14 02:40:00,74.7,74.4,29.38,SE,135,0.0,0.0,99,0.00,,,0.07,fowsr,2013-08-14 06:40:00,
2013-08-14 02:45:00,74.5,74.2,29.38,SE,135,0.0,0.0,99,0.00,,,0.07,fowsr,2013-08-14 06:45:00,
2013-08-14 02:50:00,74.5,74.2,29.37,SE,135,0.0,0.0,99,0.00,,,0.07,fowsr,2013-08-14 06:50:00,
2013-08-14 02:55:00,74.5,74.2,29.37,SE,135,0.0,0.0,99,0.00,,,0.07,fowsr,2013-08-14 06:55:00,
2013-08-14 03:00:00,74.3,74.1,29.37,SE,135,0.0,0.0,99,0.00,,,0.07,fowsr,2013-08-14 07:00:00,
2013-08-14 03:05:00,74.3,73.8,29.37,SE,135,0.0,0.0,98,0.00,,,0.07,fowsr,2013-08-14 07:05:00,
2013-08-14 03:10:00,74.3,73.8,29.37,SE,135,0.0,0.0,98,0.00,,,0.06,fowsr,2013-08-14 07:10:00,
2013-08-14 03:15:00,74.3,73.8,29.38,SE,135,0.0,0.0,98,0.00,,,0.05,fowsr,2013-08-14 07:15:00,
2013-08-14 03:20:00,74.3,73.8,29.37,SE,135,0.0,0.0,98,0.00,,,0.04,fowsr,2013-08-14 07:20:00,
2013-08-14 03:25:00,74.1,73.6,29.38,SE,135,0.0,0.0,98,0.00,,,0.04,fowsr,2013-08-14 07:25:00,
2013-08-14 03:30:00,74.1,73.6,29.37,SE,135,0.0,0.0,98,0.00,,,0.02,fowsr,2013-08-14 07:30:00,
2013-08-14 03:35:00,73.9,73.5,29.37,SE,135,0.0,0.0,98,0.00,,,0.02,fowsr,2013-08-14 07:35:00,
2013-08-14 03:40:00,73.9,73.5,29.37,SE,135,0.0,0.0,98,0.00,,,0.02,fowsr,2013-08-14 07:40:00,
2013-08-14 03:45:00,73.9,73.2,29.37,SE,135,0.0,0.0,97,0.00,,,0.02,fowsr,2013-08-14 07:45:00,
2013-08-14 03:50:00,73.8,73.0,29.38,SE,135,0.0,0.0,97,0.00,,,0.02,fowsr,2013-08-14 07:50:00,
2013-08-14 03:55:00,73.6,72.9,29.38,SE,135,0.0,0.0,97,0.00,,,0.02,fowsr,2013-08-14 07:55:00,
2013-08-14 04:00:00,73.6,72.9,29.39,SE,135,0.0,0.0,97,0.00,,,0.01,fowsr,2013-08-14 08:00:00,
2013-08-14 04:05:00,73.6,72.9,29.39,SE,135,0.0,0.0,97,0.00,,,0.01,fowsr,2013-08-14 08:05:00,
2013-08-14 04:10:00,73.2,72.3,29.39,SE,135,0.0,0.0,96,0.00,,,0.01,fowsr,2013-08-14 08:10:00,
2013-08-14 04:15:00,73.2,72.0,29.38,SE,135,0.0,0.0,95,0.00,,,0.01,fowsr,2013-08-14 08:15:00,
2013-08-14 04:20:00,73.2,72.0,29.38,SE,135,0.0,0.0,95,0.00,,,0.01,fowsr,2013-08-14 08:20:00,
2013-08-14 04:25:00,73.0,71.8,29.38,SE,135,0.0,0.0,95,0.00,,,0.01,fowsr,2013-08-14 08:25:00,
2013-08-14 04:30:00,73.0,71.6,29.38,SW,225,0.0,0.7,94,0.00,,,0.01,fowsr,2013-08-14 08:30:00,
2013-08-14 04:35:00,72.9,71.4,29.39,SW,225,0.0,0.0,94,0.00,,,0.01,fowsr,2013-08-14 08:35:00,
2013-08-14 04:40:00,72.9,71.4,29.38,SW,225,0.0,0.0,94,0.00,,,0.01,fowsr,2013-08-14 08:40:00,
2013-08-14 04:45:00,72.7,71.0,29.39,SW,225,0.0,0.0,93,0.00,,,0.01,fowsr,2013-08-14 08:45:00,
2013-08-14 04:50:00,72.7,71.0,29.39,SW,225,0.0,0.0,93,0.00,,,0.01,fowsr,2013-08-14 08:50:00,
2013-08-14 04:55:00,72.5,70.8,29.39,SW,225,0.0,0.0,93,0.00,,,0.01,fowsr,2013-08-14 08:55:00,
2013-08-14 05:00:00,72.3,70.6,29.40,SW,225,0.0,0.0,93,0.00,,,0.01,fowsr,2013-08-14 09:00:00,
2013-08-14 05:05:00,72.3,70.4,29.39,SW,225,0.0,0.0,92,0.00,,,0.01,fowsr,2013-08-14 09:05:00,
2013-08-14 05:10:00,72.1,70.2,29.39,SW,225,0.0,0.0,92,0.00,,,0.01,fowsr,2013-08-14 09:10:00,
2013-08-14 05:15:00,72.1,70.2,29.40,SW,225,0.0,0.0,92,0.00,,,0.01,fowsr,2013-08-14 09:15:00,
2013-08-14 05:20:00,72.1,70.0,29.39,SW,225,0.0,0.7,91,0.00,,,0.01,fowsr,2013-08-14 09:20:00,
2013-08-14 05:25:00,72.0,69.8,29.40,SW,225,0.0,0.0,91,0.00,,,0.01,fowsr,2013-08-14 09:25:00,
2013-08-14 05:30:00,72.0,69.8,29.40,SW,225,0.0,0.0,91,0.00,,,0.01,fowsr,2013-08-14 09:30:00,
2013-08-14 05:35:00,71.8,69.6,29.40,SW,225,0.0,0.0,91,0.00,,,0.01,fowsr,2013-08-14 09:35:00,
2013-08-14 05:40:00,71.6,69.4,29.41,SW,225,0.0,0.0,91,0.00,,,0.01,fowsr,2013-08-14 09:40:00,
2013-08-14 05:45:00,71.4,69.5,29.41,SW,225,0.0,0.0,92,0.00,,,0.01,fowsr,2013-08-14 09:45:00,
2013-08-14 05:50:00,71.2,69.3,29.41,SW,225,0.0,0.0,92,0.00,,,0.01,fowsr,2013-08-14 09:50:00,
2013-08-14 05:55:00,71.1,69.1,29.42,SW,225,0.0,0.0,92,0.00,,,0.01,fowsr,2013-08-14 09:55:00,
2013-08-14 06:00:00,71.1,69.4,29.42,SW,225,0.0,0.0,93,0.00,,,0.01,fowsr,2013-08-14 10:00:00,
2013-08-14 06:05:00,70.9,69.2,29.42,SW,225,0.0,0.0,93,0.00,,,0.01,fowsr,2013-08-14 10:05:00,
2013-08-14 06:10:00,70.9,69.5,29.42,SW,225,0.0,0.0,94,0.00,,,0.01,fowsr,2013-08-14 10:10:00,
2013-08-14 06:15:00,70.7,69.3,29.43,SW,225,0.0,0.0,94,0.00,,,0.01,fowsr,2013-08-14 10:15:00,
2013-08-14 06:20:00,70.7,69.5,29.42,SW,225,0.0,0.0,95,0.00,,,0.01,fowsr,2013-08-14 10:20:00,
2013-08-14 06:25:00,70.7,69.5,29.43,SW,225,0.0,0.0,95,0.00,,,0.01,fowsr,2013-08-14 10:25:00,
2013-08-14 06:30:00,70.7,69.3,29.43,SW,225,0.0,0.0,94,0.00,,,0.01,fowsr,2013-08-14 10:30:00,
2013-08-14 06:35:00,70.5,69.1,29.43,SW,225,0.0,0.0,94,0.00,,,0.01,fowsr,2013-08-14 10:35:00,
2013-08-14 06:40:00,70.5,69.1,29.43,SW,225,0.0,0.0,94,0.00,,,0.01,fowsr,2013-08-14 10:40:00,
2013-08-14 06:45:00,70.5,68.8,29.44,SE,135,0.0,0.0,93,0.00,,,0.01,fowsr,2013-08-14 10:45:00,
2013-08-14 06:50:00,70.5,68.8,29.44,SE,135,0.0,0.0,93,0.00,,,0.01,fowsr,2013-08-14 10:50:00,
2013-08-14 06:55:00,70.7,68.8,29.44,SE,135,0.0,0.0,92,0.00,,,0.01,fowsr,2013-08-14 10:55:00,
2013-08-14 07:00:00,70.7,68.8,29.44,SE,135,0.0,0.0,92,0.00,,,0.01,fowsr,2013-08-14 11:00:00,
2013-08-14 07:05:00,70.7,68.8,29.44,SE,135,0.0,0.0,92,0.00,,,0.01,fowsr,2013-08-14 11:05:00,
2013-08-14 07:10:00,70.7,68.8,29.45,SE,135,0.0,0.0,92,0.00,,,0.01,fowsr,2013-08-14 11:10:00,
2013-08-14 07:15:00,70.9,69.0,29.45,SE,135,0.0,0.0,92,0.00,,,0.01,fowsr,2013-08-14 11:15:00,
2013-08-14 07:20:00,70.9,69.0,29.45,SE,135,0.0,0.0,92,0.00,,,0.01,fowsr,2013-08-14 11:20:00,
2013-08-14 07:25:00,71.1,68.9,29.45,SE,135,0.0,0.0,91,0.00,,,0.01,fowsr,2013-08-14 11:25:00,
2013-08-14 07:30:00,71.1,68.9,29.46,SE,135,0.0,0.0,91,0.00,,,0.01,fowsr,2013-08-14 11:30:00,
2013-08-14 07:35:00,71.2,69.1,29.46,SE,135,0.0,0.0,91,0.00,,,0.01,fowsr,2013-08-14 11:35:00,
2013-08-14 07:40:00,71.4,69.2,29.46,SE,135,0.0,0.0,91,0.00,,,0.01,fowsr,2013-08-14 11:40:00,
2013-08-14 07:45:00,71.4,69.2,29.46,SE,135,0.0,0.0,91,0.00,,,0.01,fowsr,2013-08-14 11:45:00,
2013-08-14 07:50:00,71.6,69.2,29.47,SE,135,0.0,0.0,90,0.00,,,0.01,fowsr,2013-08-14 11:50:00,
2013-08-14 07:55:00,71.6,68.9,29.47,SE,135,0.0,0.0,89,0.00,,,0.01,fowsr,2013-08-14 11:55:00,
2013-08-14 08:00:00,71.6,68.9,29.47,North,0,0.0,1.6,89,0.00,,,0.01,fowsr,2013-08-14 12:00:00,
2013-08-14 08:05:00,71.8,69.1,29.47,North,0,0.0,0.0,89,0.00,,,0.01,fowsr,2013-08-14 12:05:00,
2013-08-14 08:10:00,72.0,69.3,29.47,North,0,0.0,0.0,89,0.00,,,0.01,fowsr,2013-08-14 12:10:00,
2013-08-14 08:15:00,72.0,69.0,29.48,SW,225,0.0,0.7,88,0.00,,,0.01,fowsr,2013-08-14 12:15:00,
2013-08-14 08:20:00,72.0,69.0,29.48,SW,225,0.0,0.7,88,0.00,,,0.01,fowsr,2013-08-14 12:20:00,
2013-08-14 08:25:00,72.3,69.4,29.48,South,180,0.0,1.6,88,0.00,,,0.01,fowsr,2013-08-14 12:25:00,
2013-08-14 08:30:00,72.5,69.5,29.48,South,180,0.0,0.0,88,0.00,,,0.01,fowsr,2013-08-14 12:30:00,
2013-08-14 08:35:00,72.7,69.2,29.48,West,270,0.0,0.7,86,0.00,,,0.01,fowsr,2013-08-14 12:35:00,
2013-08-14 08:40:00,73.0,69.3,29.49,NE,45,0.0,0.0,85,0.00,,,0.01,fowsr,2013-08-14 12:40:00,
2013-08-14 08:45:00,73.2,69.2,29.49,NW,315,0.0,0.0,84,0.00,,,0.01,fowsr,2013-08-14 12:45:00,
2013-08-14 08:50:00,73.4,69.6,29.49,South,180,0.0,0.7,85,0.00,,,0.01,fowsr,2013-08-14 12:50:00,
2013-08-14 08:55:00,73.6,69.8,29.49,West,270,0.0,0.0,85,0.00,,,0.01,fowsr,2013-08-14 12:55:00,
2013-08-14 09:00:00,73.8,69.7,29.49,NE,45,0.0,0.0,84,0.00,,,0.01,fowsr,2013-08-14 13:00:00,
2013-08-14 09:05:00,73.9,69.9,29.50,North,0,0.0,0.7,84,0.00,,,0.01,fowsr,2013-08-14 13:05:00,
2013-08-14 09:10:00,74.1,70.0,29.50,SW,225,0.0,0.7,84,0.00,,,0.01,fowsr,2013-08-14 13:10:00,
2013-08-14 09:20:00,74.3,70.2,29.50,North,0,0.0,0.0,84,0.00,,,0.01,fowsr,2013-08-14 13:20:00,
2013-08-14 09:25:00,74.3,70.2,29.50,SW,225,0.0,0.0,84,0.00,,,0.01,fowsr,2013-08-14 13:25:00,
2013-08-14 09:30:00,74.7,70.6,29.50,SE,135,0.0,0.0,84,0.00,,,0.01,fowsr,2013-08-14 13:30:00,
2013-08-14 09:35:00,74.8,70.7,29.50,North,0,1.6,2.2,84,0.00,,,0.01,fowsr,2013-08-14 13:35:00,
2013-08-14 09:40:00,75.0,70.6,29.50,West,270,0.0,0.0,83,0.00,,,0.01,fowsr,2013-08-14 13:40:00,
2013-08-14 09:45:00,75.4,70.7,29.50,West,270,0.0,0.0,82,0.00,,,0.01,fowsr,2013-08-14 13:45:00,
2013-08-14 09:50:00,75.7,71.1,29.50,SE,135,0.0,0.7,82,0.00,,,0.01,fowsr,2013-08-14 13:50:00,
2013-08-14 09:55:00,75.9,71.2,29.50,SE,135,0.0,1.6,82,0.00,,,0.01,fowsr,2013-08-14 13:55:00,
2013-08-14 10:00:00,76.1,71.1,29.50,West,270,0.0,0.7,81,0.00,,,0.01,fowsr,2013-08-14 14:00:00,
2013-08-14 10:05:00,76.3,71.3,29.50,NW,315,0.0,0.7,81,0.00,,,0.01,fowsr,2013-08-14 14:05:00,
2013-08-14 10:10:00,76.5,71.5,29.51,SE,135,0.0,0.0,81,0.00,,,0.01,fowsr,2013-08-14 14:10:00,
2013-08-14 10:15:00,76.5,71.5,29.51,SE,135,0.0,0.7,81,0.00,,,0.01,fowsr,2013-08-14 14:15:00,
2013-08-14 10:20:00,76.5,71.2,29.51,NW,315,0.7,0.7,80,0.00,,,0.01,fowsr,2013-08-14 14:20:00,
2013-08-14 10:25:00,76.8,71.8,29.51,NW,315,0.0,0.7,81,0.00,,,0.01,fowsr,2013-08-14 14:25:00,
2013-08-14 10:30:00,77.0,71.1,29.51,NW,315,0.0,0.7,78,0.00,,,0.01,fowsr,2013-08-14 14:30:00,
2013-08-14 10:35:00,77.0,71.1,29.52,SW,225,0.7,1.6,78,0.00,,,0.01,fowsr,2013-08-14 14:35:00,
2013-08-14 10:40:00,76.6,70.8,29.52,SW,225,0.0,0.7,78,0.00,,,0.01,fowsr,2013-08-14 14:40:00,
2013-08-14 10:45:00,76.5,70.9,29.52,West,270,0.0,0.0,79,0.00,,,0.01,fowsr,2013-08-14 14:45:00,
2013-08-14 10:50:00,76.3,70.7,29.52,West,270,0.0,0.7,79,0.00,,,0.01,fowsr,2013-08-14 14:50:00,
2013-08-14 10:55:00,76.1,70.5,29.52,SW,225,0.0,0.0,79,0.00,,,0.01,fowsr,2013-08-14 14:55:00,
2013-08-14 11:00:00,76.3,70.7,29.52,NE,45,0.0,0.0,79,0.00,,,0.01,fowsr,2013-08-14 15:00:00,
2013-08-14 11:05:00,76.5,70.3,29.52,North,0,0.7,1.6,77,0.00,,,0.01,fowsr,2013-08-14 15:05:00,
2013-08-14 11:10:00,76.6,69.9,29.53,SW,225,0.0,0.7,75,0.00,,,0.01,fowsr,2013-08-14 15:10:00,
2013-08-14 11:15:00,76.6,69.9,29.53,NW,315,0.0,0.7,75,0.00,,,0.01,fowsr,2013-08-14 15:15:00,
2013-08-14 11:20:00,76.8,69.7,29.53,NW,315,0.0,0.7,74,0.00,,,0.01,fowsr,2013-08-14 15:20:00,
2013-08-14 11:25:00,77.0,69.6,29.53,NW,315,0.0,1.6,73,0.00,,,0.01,fowsr,2013-08-14 15:25:00,
2013-08-14 11:30:00,77.0,69.3,29.53,SW,225,0.7,1.6,72,0.00,,,0.01,fowsr,2013-08-14 15:30:00,
2013-08-14 11:35:00,77.0,69.6,29.53,North,0,0.0,0.0,73,0.00,,,0.01,fowsr,2013-08-14 15:35:00,
2013-08-14 11:40:00,77.0,69.3,29.53,SE,135,0.7,3.1,72,0.00,,,0.01,fowsr,2013-08-14 15:40:00,
2013-08-14 11:45:00,77.2,69.4,29.54,East,90,0.0,0.7,72,0.00,,,0.01,fowsr,2013-08-14 15:45:00,
2013-08-14 11:50:00,77.0,68.9,29.54,NW,315,0.0,1.6,71,0.00,,,0.01,fowsr,2013-08-14 15:50:00,
2013-08-14 11:55:00,76.8,68.8,29.53,NW,315,0.0,1.6,71,0.00,,,0.01,fowsr,2013-08-14 15:55:00,
2013-08-14 12:00:00,76.8,69.1,29.53,SE,135,0.7,1.6,72,0.00,,,0.01,fowsr,2013-08-14 16:00:00,
2013-08-14 12:05:00,77.0,68.9,29.53,South,180,0.0,1.6,71,0.00,,,0.01,fowsr,2013-08-14 16:05:00,
2013-08-14 12:10:00,77.0,68.9,29.53,SW,225,0.7,2.2,71,0.00,,,0.01,fowsr,2013-08-14 16:10:00,
2013-08-14 12:20:00,76.8,68.8,29.53,SW,225,0.0,0.0,71,0.00,,,0.01,fowsr,2013-08-14 16:20:00,
2013-08-14 12:30:00,76.5,68.8,29.53,NW,315,0.0,0.0,72,0.00,,,0.01,fowsr,2013-08-14 16:30:00,
2013-08-14 12:35:00,76.5,69.1,29.53,West,270,0.0,0.0,73,0.00,,,0.01,fowsr,2013-08-14 16:35:00,
2013-08-14 12:40:00,76.5,69.4,29.53,NE,45,0.0,0.0,74,0.00,,,0.01,fowsr,2013-08-14 16:40:00,
2013-08-14 12:45:00,76.5,69.4,29.53,West,270,0.0,0.0,74,0.00,,,0.01,fowsr,2013-08-14 16:45:00,
2013-08-14 12:50:00,76.5,69.1,29.54,North,0,0.0,0.7,73,0.00,,,0.01,fowsr,2013-08-14 16:50:00,
2013-08-14 12:55:00,76.3,69.2,29.54,West,270,0.0,0.7,74,0.00,,,0.01,fowsr,2013-08-14 16:55:00,
2013-08-14 13:00:00,76.1,69.0,29.54,NW,315,0.0,1.6,74,0.00,,,0.01,fowsr,2013-08-14 17:00:00,
2013-08-14 13:10:00,75.6,68.8,29.54,South,180,0.0,0.7,75,0.00,,,0.01,fowsr,2013-08-14 17:10:00,
2013-08-14 13:15:00,75.6,68.8,29.54,SE,135,0.0,0.0,75,0.00,,,0.01,fowsr,2013-08-14 17:15:00,
2013-08-14 13:20:00,75.6,68.8,29.54,South,180,0.0,0.0,75,0.00,,,0.01,fowsr,2013-08-14 17:20:00,
2013-08-14 13:25:00,75.4,68.7,29.54,West,270,0.0,1.6,75,0.00,,,0.01,fowsr,2013-08-14 17:25:00,
2013-08-14 13:30:00,75.0,68.9,29.54,West,270,0.0,1.6,77,0.00,,,0.01,fowsr,2013-08-14 17:30:00,
2013-08-14 13:35:00,75.0,68.6,29.54,West,270,0.0,0.7,76,0.00,,,0.01,fowsr,2013-08-14 17:35:00,
2013-08-14 13:40:00,74.7,68.3,29.54,NW,315,0.7,1.6,76,0.00,,,0.01,fowsr,2013-08-14 17:40:00,
2013-08-14 13:45:00,74.1,67.8,29.54,West,270,0.0,1.6,76,0.00,,,0.01,fowsr,2013-08-14 17:45:00,
2013-08-14 13:50:00,73.9,67.6,29.54,NW,315,0.0,0.7,76,0.00,,,0.01,fowsr,2013-08-14 17:50:00,
2013-08-14 14:00:00,74.1,67.8,29.53,West,270,0.7,1.6,76,0.00,,,0.01,fowsr,2013-08-14 18:00:00,
2013-08-14 14:05:00,74.1,67.8,29.53,West,270,0.7,1.6,76,0.00,,,0.01,fowsr,2013-08-14 18:05:00,
2013-08-14 14:10:00,74.8,68.1,29.53,NW,315,0.0,0.7,75,0.00,,,0.01,fowsr,2013-08-14 18:10:00,
2013-08-14 14:15:00,75.4,68.0,29.53,West,270,0.7,2.2,73,0.00,,,0.01,fowsr,2013-08-14 18:15:00,
2013-08-14 14:20:00,75.4,67.7,29.54,West,270,0.0,0.7,72,0.00,,,0.01,fowsr,2013-08-14 18:20:00,
2013-08-14 14:25:00,75.7,68.1,29.54,West,270,0.0,0.0,72,0.00,,,0.01,fowsr,2013-08-14 18:25:00,
2013-08-14 14:35:00,76.1,68.1,29.54,NW,315,0.0,0.7,71,0.00,,,0.01,fowsr,2013-08-14 18:35:00,
2013-08-14 14:45:00,76.1,68.1,29.53,NW,315,0.7,2.2,71,0.00,,,0.01,fowsr,2013-08-14 18:45:00,
2013-08-14 14:50:00,75.9,67.9,29.54,NW,315,0.0,0.7,71,0.00,,,0.01,fowsr,2013-08-14 18:50:00,
2013-08-14 15:01:00,75.7,68.1,29.53,SE,135,0.0,0.7,72,0.00,,,0.01,fowsr,2013-08-14 19:01:00,
2013-08-14 15:12:00,75.6,67.9,29.54,SW,225,0.0,0.7,72,0.00,,,0.01,fowsr,2013-08-14 19:12:00,
2013-08-14 15:20:00,75.4,68.0,29.53,SE,135,0.0,0.0,73,0.00,,,0.01,fowsr,2013-08-14 19:20:00,
2013-08-14 15:25:00,75.4,68.0,29.54,SW,225,0.0,0.7,73,0.00,,,0.01,fowsr,2013-08-14 19:25:00,
2013-08-14 15:35:00,75.0,68.0,29.53,SW,225,0.0,0.0,74,0.00,,,0.01,fowsr,2013-08-14 19:35:00,
2013-08-14 15:40:00,75.0,68.0,29.53,South,180,0.0,0.7,74,0.00,,,0.01,fowsr,2013-08-14 19:40:00,
2013-08-14 15:45:00,75.0,67.7,29.54,West,270,0.0,0.7,73,0.00,,,0.01,fowsr,2013-08-14 19:45:00,
2013-08-14 15:55:00,75.0,67.7,29.54,East,90,0.0,1.6,73,0.00,,,0.01,fowsr,2013-08-14 19:55:00,
2013-08-14 16:00:00,75.0,67.7,29.53,East,90,0.0,0.0,73,0.00,,,0.01,fowsr,2013-08-14 20:00:00,
2013-08-14 16:05:00,75.0,67.7,29.49,East,90,0.0,0.0,73,0.00,,,0.01,fowsr,2013-08-14 20:05:00,
2013-08-14 16:15:00,75.6,67.9,29.54,SE,135,0.0,0.0,72,0.00,,,0.01,fowsr,2013-08-14 20:15:00,
2013-08-14 16:21:00,75.9,68.2,29.54,South,180,0.0,0.7,72,0.00,,,0.01,fowsr,2013-08-14 20:21:00,
2013-08-14 16:30:00,76.1,68.4,29.54,North,0,0.0,0.0,72,0.00,,,0.01,fowsr,2013-08-14 20:30:00,
2013-08-14 16:35:00,76.1,68.4,29.54,North,0,0.0,0.0,72,0.00,,,0.01,fowsr,2013-08-14 20:35:00,
2013-08-14 16:45:00,75.9,67.9,29.54,North,0,0.0,0.7,71,0.00,,,0.01,fowsr,2013-08-14 20:45:00,
2013-08-14 16:50:00,75.7,68.1,29.54,North,0,0.0,0.0,72,0.00,,,0.01,fowsr,2013-08-14 20:50:00,
2013-08-14 16:55:00,75.6,67.9,29.54,SW,225,0.0,0.0,72,0.00,,,0.01,fowsr,2013-08-14 20:55:00,
2013-08-14 17:00:00,75.4,67.7,29.54,West,270,0.0,0.7,72,0.00,,,0.01,fowsr,2013-08-14 21:00:00,
2013-08-14 17:05:00,75.0,67.7,29.54,East,90,0.0,0.7,73,0.00,,,0.01,fowsr,2013-08-14 21:05:00,
2013-08-14 17:10:00,75.0,67.7,29.54,West,270,0.0,0.7,73,0.00,,,0.01,fowsr,2013-08-14 21:10:00,
2013-08-14 17:15:00,75.4,68.0,29.54,West,270,0.0,0.7,73,0.00,,,0.01,fowsr,2013-08-14 21:15:00,
2013-08-14 17:20:00,75.4,67.7,29.54,East,90,0.0,0.7,72,0.00,,,0.01,fowsr,2013-08-14 21:20:00,
2013-08-14 17:25:00,75.4,67.7,29.54,NE,45,0.0,0.7,72,0.00,,,0.01,fowsr,2013-08-14 21:25:00,
2013-08-14 17:30:00,75.0,67.7,29.54,South,180,0.0,0.0,73,0.00,,,0.01,fowsr,2013-08-14 21:30:00,
2013-08-14 17:35:00,75.0,67.7,29.54,SW,225,0.0,0.0,73,0.00,,,0.01,fowsr,2013-08-14 21:35:00,
2013-08-14 17:40:00,75.0,68.0,29.54,West,270,0.0,0.7,74,0.00,,,0.01,fowsr,2013-08-14 21:40:00,
2013-08-14 17:45:00,74.8,67.5,29.53,North,0,0.0,0.0,73,0.00,,,0.01,fowsr,2013-08-14 21:45:00,
2013-08-14 17:50:00,74.7,67.7,29.53,NW,315,0.0,0.7,74,0.00,,,0.01,fowsr,2013-08-14 21:50:00,
2013-08-14 18:00:00,74.5,67.2,29.54,SE,135,0.0,0.7,73,0.00,,,0.01,fowsr,2013-08-14 22:00:00,
2013-08-14 18:10:00,74.3,67.3,29.54,South,180,0.0,0.0,74,0.00,,,0.01,fowsr,2013-08-14 22:10:00,
2013-08-14 18:15:00,74.1,67.1,29.55,North,0,0.0,0.0,74,0.00,,,0.01,fowsr,2013-08-14 22:15:00,
2013-08-14 18:20:00,73.9,67.0,29.55,North,0,0.0,0.0,74,0.00,,,0.01,fowsr,2013-08-14 22:20:00,
2013-08-14 18:25:00,73.8,66.8,29.55,NW,315,0.0,0.0,74,0.00,,,0.01,fowsr,2013-08-14 22:25:00,
2013-08-14 18:30:00,73.6,66.3,29.55,NW,315,0.0,0.0,73,0.00,,,0.01,fowsr,2013-08-14 22:30:00,
2013-08-14 18:40:00,73.2,66.0,29.55,West,270,0.0,0.0,73,0.00,,,0.01,fowsr,2013-08-14 22:40:00,
2013-08-14 18:45:00,73.0,65.8,29.55,West,270,0.0,0.0,73,0.00,,,0.01,fowsr,2013-08-14 22:45:00,
2013-08-14 18:50:00,73.0,65.8,29.56,West,270,0.0,0.0,73,0.00,,,0.01,fowsr,2013-08-14 22:50:00,
2013-08-14 18:55:00,72.9,65.6,29.56,SE,135,0.0,0.0,73,0.00,,,0.01,fowsr,2013-08-14 22:55:00,
2013-08-14 19:00:00,72.9,65.6,29.56,SE,135,0.0,0.7,73,0.00,,,0.01,fowsr,2013-08-14 23:00:00,
2013-08-14 19:10:00,72.7,64.8,29.56,SE,135,0.0,0.0,71,0.00,,,0.00,fowsr,2013-08-14 23:10:00,
2013-08-14 19:15:00,72.7,64.8,29.56,North,0,0.0,0.0,71,0.00,,,0.00,fowsr,2013-08-14 23:15:00,
2013-08-14 19:25:00,72.5,64.7,29.56,West,270,0.0,0.7,71,0.00,,,0.00,fowsr,2013-08-14 23:25:00,
2013-08-14 19:30:00,72.3,64.8,29.57,North,0,0.0,0.7,72,0.00,,,0.00,fowsr,2013-08-14 23:30:00,
2013-08-14 19:35:00,72.1,64.6,29.57,North,0,0.0,0.0,72,0.00,,,0.00,fowsr,2013-08-14 23:35:00,
2013-08-14 19:40:00,72.0,64.8,29.57,North,0,0.0,0.7,73,0.00,,,0.00,fowsr,2013-08-14 23:40:00,
2013-08-14 19:45:00,71.8,64.9,29.57,North,0,0.0,0.7,74,0.00,,,0.00,fowsr,2013-08-14 23:45:00,
2013-08-14 19:50:00,71.6,64.7,29.57,NE,45,0.0,0.7,74,0.00,,,0.00,fowsr,2013-08-14 23:50:00,
2013-08-14 19:55:00,71.4,64.9,29.57,NE,45,0.0,0.0,75,0.00,,,0.00,fowsr,2013-08-14 23:55:00,
2013-08-14 20:00:00,71.2,64.7,29.58,NE,45,0.0,0.0,75,0.00,,,0.00,fowsr,2013-08-15 00:00:00,
2013-08-14 20:10:00,70.5,64.0,29.58,West,270,0.0,0.7,75,0.00,,,0.00,fowsr,2013-08-15 00:10:00,
2013-08-14 20:15:00,70.5,64.0,29.58,SE,135,0.0,0.0,75,0.00,,,0.00,fowsr,2013-08-15 00:15:00,
2013-08-14 20:20:00,70.5,64.0,29.58,SE,135,0.0,0.0,75,0.00,,,0.00,fowsr,2013-08-15 00:20:00,
2013-08-14 20:25:00,70.0,63.8,29.58,SE,135,0.0,0.0,76,0.00,,,0.00,fowsr,2013-08-15 00:25:00,
2013-08-14 20:30:00,69.8,63.6,29.58,West,270,0.0,0.0,76,0.00,,,0.00,fowsr,2013-08-15 00:30:00,
2013-08-14 20:35:00,69.6,64.0,29.59,West,270,0.0,0.0,78,0.00,,,0.00,fowsr,2013-08-15 00:35:00,
2013-08-14 20:45:00,69.3,63.9,29.58,SE,135,0.0,0.0,79,0.00,,,0.00,fowsr,2013-08-15 00:45:00,
2013-08-14 20:50:00,68.9,63.9,29.59,SE,135,0.0,0.0,80,0.00,,,0.00,fowsr,2013-08-15 00:50:00,
2013-08-14 20:55:00,68.7,63.7,29.59,SE,135,0.0,0.0,80,0.00,,,0.00,fowsr,2013-08-15 00:55:00,
2013-08-14 21:00:00,68.5,63.5,29.59,SW,225,0.0,0.0,80,0.00,,,0.00,fowsr,2013-08-15 01:00:00,
2013-08-14 21:05:00,68.4,63.4,29.60,SW,225,0.0,0.0,80,0.00,,,0.00,fowsr,2013-08-15 01:05:00,
2013-08-14 21:10:00,68.4,63.6,29.61,SW,225,0.0,0.0,81,0.00,,,0.00,fowsr,2013-08-15 01:10:00,
2013-08-14 21:15:00,68.2,63.5,29.61,SW,225,0.0,0.0,81,0.00,,,0.00,fowsr,2013-08-15 01:15:00,
2013-08-14 21:20:00,68.0,63.3,29.62,SW,225,0.0,0.0,81,0.00,,,0.00,fowsr,2013-08-15 01:20:00,
2013-08-14 21:25:00,67.8,63.4,29.62,SW,225,0.0,0.0,82,0.00,,,0.00,fowsr,2013-08-15 01:25:00,
2013-08-14 21:30:00,67.5,63.3,29.62,SW,225,0.0,0.0,83,0.00,,,0.00,fowsr,2013-08-15 01:30:00,
2013-08-14 21:35:00,67.3,63.1,29.62,SW,225,0.0,0.0,83,0.00,,,0.00,fowsr,2013-08-15 01:35:00,
2013-08-14 21:40:00,67.1,63.2,29.62,SW,225,0.0,0.0,84,0.00,,,0.00,fowsr,2013-08-15 01:40:00,
2013-08-14 21:45:00,66.7,62.9,29.62,SW,225,0.0,0.0,84,0.00,,,0.00,fowsr,2013-08-15 01:45:00,
2013-08-14 21:50:00,66.6,62.9,29.62,SW,225,0.0,0.0,85,0.00,,,0.00,fowsr,2013-08-15 01:50:00,
2013-08-14 21:55:00,66.4,62.8,29.62,SW,225,0.0,0.0,85,0.00,,,0.00,fowsr,2013-08-15 01:55:00,
2013-08-14 22:00:00,66.2,62.8,29.61,SW,225,0.0,0.0,86,0.00,,,0.00,fowsr,2013-08-15 02:00:00,
2013-08-14 22:05:00,66.0,62.9,29.62,SW,225,0.0,0.0,87,0.00,,,0.00,fowsr,2013-08-15 02:05:00,
2013-08-14 22:10:00,65.8,63.0,29.62,SW,225,0.0,0.0,88,0.00,,,0.00,fowsr,2013-08-15 02:10:00,
2013-08-14 22:15:00,65.7,62.8,29.62,SW,225,0.0,0.0,88,0.00,,,0.00,fowsr,2013-08-15 02:15:00,
2013-08-14 22:20:00,65.7,62.8,29.62,SW,225,0.0,0.0,88,0.00,,,0.00,fowsr,2013-08-15 02:20:00,
2013-08-14 22:25:00,65.5,62.9,29.62,SW,225,0.0,0.0,89,0.00,,,0.00,fowsr,2013-08-15 02:25:00,
2013-08-14 22:30:00,65.3,62.7,29.62,SW,225,0.0,0.0,89,0.00,,,0.00,fowsr,2013-08-15 02:30:00,
2013-08-14 22:35:00,65.1,62.8,29.62,SW,225,0.0,0.0,90,0.00,,,0.00,fowsr,2013-08-15 02:35:00,
2013-08-14 22:40:00,64.9,62.6,29.63,SW,225,0.0,0.0,90,0.00,,,0.00,fowsr,2013-08-15 02:40:00,
2013-08-14 22:45:00,64.9,62.6,29.62,SW,225,0.0,0.0,90,0.00,,,0.00,fowsr,2013-08-15 02:45:00,
2013-08-14 22:50:00,64.8,62.2,29.62,SW,225,0.0,0.0,89,0.00,,,0.00,fowsr,2013-08-15 02:50:00,
2013-08-14 22:55:00,64.8,62.2,29.62,SW,225,0.0,0.0,89,0.00,,,0.00,fowsr,2013-08-15 02:55:00,
2013-08-14 23:00:00,64.8,62.4,29.62,SW,225,0.0,0.0,90,0.00,,,0.00,fowsr,2013-08-15 03:00:00,
2013-08-14 23:05:00,64.6,62.0,29.62,SW,225,0.0,0.0,89,0.00,,,0.00,fowsr,2013-08-15 03:05:00,
2013-08-14 23:10:00,64.6,62.0,29.62,SW,225,0.0,0.0,89,0.00,,,0.00,fowsr,2013-08-15 03:10:00,
2013-08-14 23:15:00,64.4,61.6,29.63,SW,225,0.0,0.0,88,0.00,,,0.00,fowsr,2013-08-15 03:15:00,
2013-08-14 23:20:00,64.4,61.6,29.63,South,180,0.0,0.0,88,0.00,,,0.00,fowsr,2013-08-15 03:20:00,
2013-08-14 23:25:00,64.4,61.3,29.63,South,180,0.0,0.0,87,0.00,,,0.00,fowsr,2013-08-15 03:25:00,
2013-08-14 23:30:00,64.4,61.3,29.63,South,180,0.0,0.0,87,0.00,,,0.00,fowsr,2013-08-15 03:30:00,
2013-08-14 23:35:00,64.4,61.3,29.63,South,180,0.0,0.0,87,0.00,,,0.00,fowsr,2013-08-15 03:35:00,
2013-08-14 23:40:00,64.2,61.2,29.63,South,180,0.0,0.0,87,0.00,,,0.00,fowsr,2013-08-15 03:40:00,
2013-08-14 23:45:00,64.2,60.9,29.63,South,180,0.0,0.0,86,0.00,,,0.00,fowsr,2013-08-15 03:45:00,
2013-08-14 23:50:00,64.0,60.7,29.63,South,180,0.0,0.0,86,0.00,,,0.00,fowsr,2013-08-15 03:50:00,
2013-08-14 23:55:00,64.0,60.7,29.63,South,180,0.0,0.0,86,0.00,,,0.00,fowsr,2013-08-15 03:55:00,